Regional Weather Roundup
Issued by NWS

Home | Current Version | Previous Version | Text Only | Print | Product List | Glossary On
Versions: 1 2 3 4 5 6 7 8 9 10 11 12 13 14 15 16 17 18 19 20 21 22 23 24 25 26 27 28 29 30 31 32 33 34 35 36 37 38 39 40 41 42 43 44 45 46 47 48 49 50
000
ASUS45 KBOU 301810
RWRCO

WEATHER ROUNDUP FOR COLORADO
NATIONAL WEATHER SERVICE DENVER/BOULDER CO
1200 PM MDT THU JUL 30 2015

NOTE: "FAIR" INDICATES FEW OR NO CLOUDS BELOW 12000 FEET WITH NO
SIGNIFICANT WEATHER AND/OR OBSTRUCTIONS TO VISIBILITY.

COZ001>005-013-030-031-301900-
...NORTHWEST COLORADO...

CITY           SKY/WX    TMP DP  RH WIND       PRES   REMARKS
CRAIG          SUNNY     85  33  15 VRB3      30.41F
HAYDEN         SUNNY     79  27  14 SE8       30.43S
MEEKER         SUNNY     81  34  18 VRB5      30.41F
MOUNT WERNER   NOT AVBL
STEAMBOAT SPGS SUNNY     75  35  23 CALM      30.45F
WALDEN         SUNNY     70  14  11 CALM      30.55F
$$

COZ006>008-011-301900-
...WEST CENTRAL VALLEYS...

CITY           SKY/WX    TMP DP  RH WIND       PRES   REMARKS
GRAND JUNCTION SUNNY     83  33  16 VRB5      30.30F
MONTROSE       SUNNY     84  41  21 VRB5      30.37F
EAGLE          SUNNY     75  34  22 CALM      30.45F
RIFLE          SUNNY     82  36  19 VRB3      30.35F
DELTA          SUNNY     86  37  17 S5        30.33F
NUCLA          SUNNY     81  43  26 N6        30.41F
$$

COZ017>023-064>068-301900-
...SOUTHWEST COLORADO...

CITY           SKY/WX    TMP DP  RH WIND       PRES   REMARKS
DURANGO        SUNNY     75  49  39 NW9       30.43F
CORTEZ         SUNNY     81  52  36 VRB6      30.38F
PAGOSA SPRINGS SUNNY     73  45  36 SW6       30.50F
TELLURIDE      SUNNY     72  38  30 W12       30.61S
WOLF CREEK PAS NOT AVBL
$$

COZ009-010-012-014-032>034-037-058>063-301900-
...CENTRAL COLORADO...

CITY           SKY/WX    TMP DP  RH WIND       PRES   REMARKS
ASPEN          SUNNY     78  28  16 NW12G17   30.50F
BUENA VISTA    SUNNY     75  38  26 SE6       30.51F
COPPER MTN     SUNNY     61  19  20 N5G22     30.83F
BERTHOUD PASS  FAIR      54  43  66 N7        30.88F
COTTONWOOD PAS SUNNY     73  21  14 CALM      30.67S
GUNNISON       SUNNY     72  39  30 CALM      30.52F
KREMMLING      SUNNY     73  27  17 CALM      30.51F
LEADVILLE      SUNNY     67  21  17 VRB5      30.64F
MONARCH PASS   SUNNY     59  32  36 E15       30.92S
SALIDA         SUNNY     78  44  30 CALM      30.54F
SUNLIGHT       SUNNY     64  25  22 NW6       30.77S
WILKERSON PASS SUNNY     61  36  39 NE5       30.81S
$$

COZ069>075-301900-
...SAN LUIS VALLEY/SANGRE DE CRISTO MOUNTAINS...

CITY           SKY/WX    TMP DP  RH WIND       PRES   REMARKS
ALAMOSA        MOSUNNY   73  49  42 VRB6      30.49F
LA VETA PASS   MOSUNNY   64  46  52 MISG      30.68F
SAGUACHE       SUNNY     72  50  46 SW3       30.52F
$$

COZ035-036-038>040-301900-
...NORTHERN COLORADO FRONT RANGE...

CITY           SKY/WX    TMP DP  RH WIND       PRES   REMARKS
DENVER INTL AP MOSUNNY   83  49  30 VRB6      30.35F
DMNS CITY PARK   N/A     85  46  25 SE1G17    30.34S
AURORA         NOT AVBL
FRONT RANGE AP MOSUNNY   82  46  28 CALM      30.36F
ERIE MUNI ARPT SUNNY     84  45  25 NE8       30.33F
BOULDER MUN AP SUNNY     82  46  28 NE3       30.34F
CENTENNIAL     MOSUNNY   81  48  31 NW7       30.38F
BROOMFIELD     MOSUNNY   84  46  26 N5        30.37F
FORT COLLINS   SUNNY     82  55  39 E8        30.33F
LONGMONT       SUNNY     87  51  28 E5        30.34F
$$

COZ041-046-047-076>085-087-088-301900-
...PIKES PEAK/PALMER DIVIDE AND SOUTHERN FOOTHILLS...

CITY           SKY/WX    TMP DP  RH WIND       PRES   REMARKS
COLO. SPRINGS  MOSUNNY   77  53  43 CALM      30.41F
A. F. ACADEMY  NOT AVBL
ELLICOTT       SUNNY    N/A N/A N/A VRB5      30.40F
FALCON         SUNNY     78  48  35 SE3       30.47S
FORT CARSON    SUNNY     78  56  46 VRB5      30.38F
LIMON          SUNNY     79  60  52 S10       30.37F
MONUMENT HILL  SUNNY     75  45  33 NW3       30.47F
TRINIDAD       PTSUNNY   76  53  44 W5        30.37F
$$

COZ042>045-048>051-090-091-301900-
...NORTHEAST COLORADO...

CITY           SKY/WX    TMP DP  RH WIND       PRES   REMARKS
GREELEY ARPT   SUNNY     82  57  42 E8        30.32F
AKRON          MOSUNNY   83  57  41 S8G20     30.32S
BURLINGTON     SUNNY     81  64  56 SW7       30.32F
WRAY           MOSUNNY   87  62  43 S12       30.28F
STERLING       NOT AVBL
HOLYOKE        NOT AVBL
FORT MORGAN    SUNNY     83  54  36 E3        30.32S
$$

COZ086-089-092>099-301900-
...SOUTHEAST COLORADO...

CITY           SKY/WX    TMP DP  RH WIND       PRES   REMARKS
PUEBLO         SUNNY     85  56  37 VRB5      30.30F
LA JUNTA       PTSUNNY   86  53  32 S5        30.29F
LAMAR          PTSUNNY   87  57  35 MISG      30.26S
SPRINGFIELD      N/A     80  55  42 VRB3      30.32F
$$



USA.gov is the U.S. government's official web portal to all federal, state and local government web resources and services.